Weather History for EINN - May, 2013

Change the Weather History Date:

Thursday, May 2, 2013

  Actual Average Record
Temperature  
Mean Temperature 48 °F -  
Max Temperature 57 °F 60 °F 73 °F (1997)
Min Temperature 40 °F 45 °F 39 °F (2002)
Degree Days  
Heating Degree Days 16    
Moisture  
Dew Point 44 °F    
Average Humidity 79    
Maximum Humidity 93    
Minimum Humidity 53    
Precipitation  
Precipitation 0.00 in 0.08 in - ()
Sea Level Pressure  
Sea Level Pressure 30.21 in    
Wind  
Wind Speed 6 mph ()    
Max Wind Speed 17 mph    
Max Gust Speed -    
Visibility 6.3 miles    
Events Rain    
Averages and records for this station are not official NWS values.
T = Trace of Precipitation, MM = Missing Value Source: Averaged Metar Reports

Daily Weather History Graph

Daily Weather History Graph

Search for Another Location

Airport or City:

Trip Planner

Search our weather history database for the weather conditions in past years. The results will help you decide how hot, cold, wet, or windy it might be!

Date:

Astronomy

May. 02, 2013 Rise Set
Actual Time 6:01 AM IST 9:04 PM IST
Civil Twilight 5:21 AM IST 9:45 PM IST
Nautical Twilight 4:29 AM IST 10:38 PM IST
Astronomical Twilight 3:21 AM IST 11:47 PM IST
Moon 2:40 AM IST (5/2) 12:41 PM IST (5/2)
Length of Visible Light 16h 23m
Length of Day
15h 03m
Waning Gibbous, 50% of the Moon is Illuminated
May 2
Waning Gibbous
May 2
Last Quarter
May 10
New
May 18
First Quarter
May 25
Full

Hourly Weather History & Observations

Time (IST) Temp. Windchill Dew Point Humidity Pressure Visibility Wind Dir Wind Speed Gust Speed Precip Events Conditions
12:00 AM 44.6 °F - 41.0 °F 87% 30.30 in 6.2 mi West 1.2 mph - N/A   Mostly Cloudy
12:30 AM 44.6 °F - 41.0 °F 87% 30.30 in 6.2 mi West 1.2 mph - N/A   Mostly Cloudy
1:00 AM 45 °F - 42 °F 85% 30.31 in 12 mi SW 2.2 mph - -   Partly Cloudy
1:00 AM 44.6 °F - 42.8 °F 93% 30.30 in 6.2 mi SW 1.2 mph - N/A   Mostly Cloudy
1:30 AM 44.6 °F - 42.8 °F 93% 30.30 in 6.2 mi Calm Calm - N/A   Mostly Cloudy
2:00 AM 44.6 °F 42.2 °F 42.8 °F 93% 30.27 in 6.2 mi South 4.6 mph - N/A   Mostly Cloudy
2:30 AM 44.6 °F 43.1 °F 42.8 °F 93% 30.27 in 6.2 mi SSE 3.5 mph - N/A   Mostly Cloudy
3:00 AM 44.6 °F 43.1 °F 42.8 °F 93% 30.27 in 6.2 mi SW 3.5 mph - N/A   Mostly Cloudy
3:30 AM 44.6 °F 43.1 °F 42.8 °F 93% 30.24 in 6.2 mi SSW 3.5 mph - N/A   Scattered Clouds
4:00 AM 42.8 °F - 41.0 °F 93% 30.24 in 6.2 mi South 2.3 mph - N/A   Partly Cloudy
4:30 AM 42.8 °F - 41.0 °F 93% 30.24 in 6.2 mi South 1.2 mph - N/A   Scattered Clouds
5:00 AM 42.8 °F 40.1 °F 41.0 °F 93% 30.24 in 6.2 mi SSE 4.6 mph - N/A   Mostly Cloudy
5:30 AM 42.8 °F 40.1 °F 41.0 °F 93% 30.21 in 6.2 mi SE 4.6 mph - N/A   Mostly Cloudy
6:00 AM 42.8 °F 37.5 °F 39.2 °F 87% 30.21 in 6.2 mi ESE 9.2 mph - N/A   Mostly Cloudy
6:30 AM 41.0 °F 35.8 °F 39.2 °F 93% 30.24 in 6.2 mi ESE 8.1 mph - N/A   Scattered Clouds
7:00 AM 42 °F - 39 °F 84% 30.24 in 22 mi ESE 8.9 mph - -   Partly Cloudy
7:00 AM 41.0 °F 35.8 °F 39.2 °F 93% 30.21 in 6.2 mi ESE 8.1 mph - N/A   Mostly Cloudy
7:30 AM 42.8 °F 38.0 °F 39.2 °F 87% 30.24 in 6.2 mi ESE 8.1 mph - N/A   Mostly Cloudy
8:00 AM 42.8 °F 37.5 °F 39.2 °F 87% 30.24 in 6.2 mi ESE 9.2 mph - N/A   Mostly Cloudy
8:30 AM 44.6 °F 39.2 °F 41.0 °F 87% 30.24 in 6.2 mi ESE 10.4 mph - N/A   Mostly Cloudy
9:00 AM 46.4 °F 41.9 °F 41.0 °F 81% 30.24 in 6.2 mi ESE 9.2 mph - N/A   Mostly Cloudy
9:30 AM 48.2 °F - 42.8 °F 82% 30.21 in 6.2 mi ESE 9.2 mph - N/A   Mostly Cloudy
10:00 AM 51.8 °F - 44.6 °F 76% 30.24 in 6.2 mi SE 6.9 mph - N/A   Mostly Cloudy
10:30 AM 53.6 °F - 44.6 °F 72% 30.24 in 6.2 mi SSE 4.6 mph - N/A   Mostly Cloudy
11:00 AM 53.6 °F - 44.6 °F 72% 30.21 in 6.2 mi SSW 6.9 mph - N/A   Mostly Cloudy
11:30 AM 55.4 °F - 44.6 °F 67% 30.21 in 6.2 mi SW 13.8 mph - N/A   Mostly Cloudy
12:00 PM 55.4 °F - 42.8 °F 63% 30.21 in 6.2 mi SW 13.8 mph - N/A   Mostly Cloudy
12:30 PM 55.4 °F - 44.6 °F 67% 30.21 in 6.2 mi SW 11.5 mph - N/A   Mostly Cloudy
1:00 PM 56 °F - 44 °F 53% 30.23 in 28 mi SW 8.9 mph - -   Mostly Cloudy
1:00 PM 55.4 °F - 44.6 °F 67% 30.21 in 6.2 mi SW 9.2 mph - N/A   Mostly Cloudy
1:30 PM 55.4 °F - 44.6 °F 67% 30.21 in 6.2 mi SSW 12.7 mph - N/A   Mostly Cloudy
2:00 PM 55.4 °F - 46.4 °F 72% 30.21 in 6.2 mi SSW 11.5 mph - N/A   Mostly Cloudy
2:30 PM 53.6 °F - 46.4 °F 77% 30.21 in 6.2 mi SSW 9.2 mph - N/A Rain Light Rain Showers
3:00 PM 55.4 °F - 46.4 °F 72% 30.21 in 6.2 mi SW 9.2 mph - N/A   Mostly Cloudy
3:30 PM 55.4 °F - 44.6 °F 67% 30.18 in 6.2 mi SW 13.8 mph - N/A   Overcast
4:00 PM 57.2 °F - 44.6 °F 63% 30.18 in 6.2 mi SW 15.0 mph - N/A   Mostly Cloudy
4:30 PM 57.2 °F - 46.4 °F 67% 30.18 in 6.2 mi WSW 11.5 mph - N/A   Mostly Cloudy
5:00 PM 57.2 °F - 46.4 °F 67% 30.18 in 6.2 mi WSW 11.5 mph - N/A   Mostly Cloudy
5:30 PM 57.2 °F - 44.6 °F 63% 30.18 in 6.2 mi SW 15.0 mph - N/A   Mostly Cloudy
6:00 PM 55.4 °F - 44.6 °F 67% 30.18 in 6.2 mi SW 17.3 mph - N/A   Mostly Cloudy
6:30 PM 55.4 °F - 46.4 °F 72% 30.18 in 6.2 mi WSW 15.0 mph - N/A   Mostly Cloudy
7:00 PM 56 °F - 46 °F 61% 30.18 in 25 mi WSW 15.7 mph - -   Partly Cloudy
7:00 PM 55.4 °F - 44.6 °F 67% 30.15 in 6.2 mi WSW 16.1 mph - N/A   Mostly Cloudy
7:30 PM 55.4 °F - 46.4 °F 72% 30.15 in 6.2 mi SW 16.1 mph - N/A   Mostly Cloudy
8:00 PM 53.6 °F - 46.4 °F 77% 30.15 in 6.2 mi SW 13.8 mph - N/A   Mostly Cloudy
8:30 PM 53.6 °F - 46.4 °F 77% 30.15 in 6.2 mi SW 12.7 mph - N/A   Mostly Cloudy
9:00 PM 51.8 °F - 46.4 °F 82% 30.15 in 6.2 mi SW 11.5 mph - N/A   Mostly Cloudy
9:30 PM 53.6 °F - 46.4 °F 77% 30.15 in 6.2 mi SW 15.0 mph - N/A   Mostly Cloudy
10:00 PM 51.8 °F - 46.4 °F 82% 30.15 in 6.2 mi SW 13.8 mph - N/A   Mostly Cloudy
10:30 PM 51.8 °F - 46.4 °F 82% 30.15 in 6.2 mi SW 13.8 mph - N/A   Mostly Cloudy
11:00 PM 51.8 °F - 46.4 °F 82% 30.15 in 6.2 mi SSW 11.5 mph - N/A   Mostly Cloudy
11:30 PM 51.8 °F - 46.4 °F 82% 30.15 in 6.2 mi SSW 11.5 mph - N/A   Mostly Cloudy